User: anonymous   Login
Location: Oshawa
(43.9000°N, 78.8670°W)
Time: 23:11:06
(UTC-04:00)
Language:

Cosmos 1500 - Orbit

View from above orbital plane
View from above orbital plane
View from above satellite
View from above satellite

Ground track
Ground track

The orbit data is extracted from the following two-line orbital elements,

1 14372U 83099A   18147.69023036  .00000682  00000-0  31893-4 0  9990
2 14372  82.5151   3.0232 0014628 333.8724  90.8281 15.17992887890059
Epoch (UTC): 27 May 2018 16:33:55
Eccentricity: 0.0014628
inclination: 82.5151°
perigee height: 502 km
apogee height: 522 km
right ascension of ascending node: 3.0232°
argument of perigee: 333.8724°
revolutions per day: 15.17992887
mean anomaly at epoch: 90.8281°
orbit number at epoch: 89005

The dashed part of the orbit path shows where the satellite is in the earth's shadow,  

DLR